Location: Nag� el Ma?a??a
(24.0667°N, 32.8833°E)
Time: 17:01:30
(UTC+00:00)

CZ-4B R/B - Pass Details

Date: 25 September 2021
Orbit: 494 x 646 km, 97.8° (Epoch: 16 October)

Event Time Altitude Azimuth Distance (km) Brightness Sun altitude
Rises 02:33:18 0° 16° (NNE) 2,681 7.6 -15.6°
Reaches altitude 10° 02:35:28 10° 20° (NNE) 1,765 6.7 -15.1°
Maximum altitude 02:39:12 60° 100° (E) 587 4.2 -14.3°
Drops below altitude 10° 02:42:49 10° 181° (S) 1,701 6.3 -13.5°
Sets 02:44:52 0° 185° (S) 2,571 7.1 -13.0°
